Regional Weather Roundup
Issued by NWS Wakefield, VA

Home | Current Version | Previous Version | Graphics & Text | Print | Product List | Glossary On
Versions: 1 2 3 4 5 6 7 8 9 10 11 12 13 14 15 16 17 18 19 20 21 22 23 24 25 26 27 28 29 30 31 32 33 34 35 36 37 38 39 40 41 42 43 44 45 46 47 48 49 50
280
ASUS41 KAKQ 190013
RWRAKQ

REGIONAL WEATHER ROUNDUP
NATIONAL WEATHER SERVICE WAKEFIELD VA
700 PM EST SAT NOV 18 2017

Note: "fair" indicates few or no clouds below 12,000 feet with no
significant weather and/or obstructions to visibility. * = Denotes
station may not report precipitation (e.g., rain,snow,etc.),
thunder or fog.

VAZ042-051-052>054-056-190100-
NORTHERN VIRGINIA

CITY           SKY/WX    TMP DP  RH WIND       PRES   REMARKS
WASH NATIONAL  CLOUDY    57  45  64 S15       29.55F
DULLES         CLOUDY    59  43  55 S13       29.53F
FORT BELVOIR   CLOUDY    59  43  54 S6        29.55F
QUANTICO       NOT AVBL
FREDERICKSBRG* PTCLDY    61  47  60 S14G22    29.57F
STAFFORD*      CLOUDY    60  44  55 S13G20    29.60F
WARRENTON      NOT AVBL
CULPEPER*      CLOUDY    63  42  47 S10G22    29.55F
MANASSAS*      CLOUDY    61  44  53 S12G21    29.54F
LEESBURG*      CLOUDY    57  45  62 S15       29.52F
WINCHESTER     PTCLDY    41  37  87 CALM      29.48F
FRONT ROYAL*   CLOUDY    55  41  58 S3        29.47F
LURAY*         CLOUDY    59  43  55 SW13      29.50F
$$

VAZ048-049-060>072-079>083-190100-
CENTRAL AND SOUTH CENTRAL VIRGINIA

CITY           SKY/WX    TMP DP  RH WIND       PRES   REMARKS
RICHMOND       CLOUDY    62  50  64 S21G29    29.64F
CHESTERFIELD*  NOT AVBL
PETERSBURG*    CLOUDY    61  28  29 S10G17    29.68F
HANOVER        CLOUDY    62  48  60 S14G24    29.64F
TAPPAHANNOCK*    N/A    N/A N/A N/A MISG        N/A
QUINTON*       FAIR      62  50  65 S10G20    29.65S
CHARLOTTSVILLE CLOUDY    62  45  53 SW17G30   29.56F
GORDONSVILLE*  CLOUDY    61  46  57 SW20G29   29.55F
ORANGE*        CLOUDY    61  43  51 S13G31    29.55F
LOUISA*          N/A     61  45  54 S13G24      N/A
BUMPASS*       FAIR      60  44  55 S10G21    29.59F
FARMVILLE*     CLOUDY    62  50  63 S12       29.61F
CREWE*         FAIR      61  49  64 S10G18    29.64F
FORT PICKETT*  NOT AVBL
CHASE CITY*    FAIR      61  49  65 S3        29.67F
CLARKSVILLE*   FAIR      61  50  67 S10G17    29.68F
SOUTH HILL*    CLOUDY    60  52  73 S12       29.74F
LAWRENCEVILLE* FAIR      60  50  68 S8        29.69F
EMPORIA*       CLOUDY    61  50  67 SE6       29.72F
$$

VAZ088>098-190100-
SOUTHEAST VIRGINIA

CITY           SKY/WX    TMP DP  RH WIND       PRES   REMARKS
NORFOLK        CLOUDY    62  51  67 S18G25    29.71F
VIRGINIA BEACH CLOUDY    62  47  57 S15G24    29.72F
NORFOLK NAVAL  CLOUDY    62  50  64 S16G24    29.72F
WEST POINT*    CLOUDY    62  49  62 S12G21    29.68S
SALUDA*        FAIR      61  51  69 S12G22    29.66F
NEWPORT NEWS   CLOUDY    62  50  64 S16       29.70F
LANGLEY AFB    CLOUDY    62  51  68 S13       29.70F
FORT EUSTIS    CLOUDY    60  51  71 S8        29.67F
WILLIAMSBURG*  CLOUDY    63  52  67 S7        29.70F
HR EXEC AP*    NOT AVBL
FRANKLIN*      CLOUDY    61  51  69 S8        29.73F
US460-WAKEFLD  CLOUDY    62  52  69 S6        29.69F
$$

VAZ020-022-025-037-045-190100-
WEST CENTRAL AND SOUTHWEST VIRGINIA

CITY           SKY/WX    TMP DP  RH WIND       PRES   REMARKS
STAUNTON*      CLOUDY    56  44  64 S7        29.55F
WAYNESBORO*    CLOUDY    57  45  65 S13G18    29.56F
HOT SPRINGS VA CLOUDY    50  40  68 S12       29.60S
LYNCHBURG      CLOUDY    58  45  62 S14G25    29.62F
DANVILLE       CLOUDY    62  48  60 SW9       29.68F
SOUTH BOSTON*  CLOUDY    63  47  56 S10       29.67F
MARTINSVILLE   CLOUDY    60  46  59 SW7       29.68F
ROANOKE        CLOUDY    58  46  64 S10       29.62F
BLACKSBURG     CLOUDY    55  47  74 S10G18    29.65F
DUBLIN*        MOCLDY    56  47  73 S16G24    29.63F
MARION*        CLOUDY    57  45  64 S3        29.64F
HILLSVILLE*    CLOUDY    52  47  84 S7        29.66S
RICHLANDS*     CLOUDY    59   6  12 S14G29    29.56F
WISE*          LGT RAIN  55  55 100 SW17      29.56F
ABINGDON*      CLOUDY    64  49  58 SW14      29.57F
$$

MDZ021>025-VAZ099-100-190100-
SOUTHERN MARYLAND AND THE DELMARVA PENINSULA

CITY           SKY/WX    TMP DP  RH WIND       PRES   REMARKS
PATUXENT RIVER NOT AVBL
BAY BRIDGE APT CLOUDY    55  45  67 S15G21    29.58F
LEONARDTOWN    CLOUDY    59  45  58 S9        29.63F
DOVER          CLOUDY    58  54  86 S17G26    29.59F
GEORGETOWN     PTCLDY    59  47  64 S16       29.64F
EASTON         PTCLDY    57  45  62 S14       29.63F
CAMBRIDGE      PTCLDY    57  46  67 S13G18    29.63F
SALISBURY      PTCLDY    59  49  69 S13G23    29.65F
OCEAN CITY     CLOUDY    57  52  83 SW16G24   29.67F
WALLOPS ISLAND CLOUDY    59  53  80 S23G31    29.68F
ACCOMACK*      CLOUDY    59  52  77 S16       29.68F
$$

NCZ012>017-030>032-190100-
NORTH CENTRAL AND EASTERN NORTH CAROLINA

CITY           SKY/WX    TMP DP  RH WIND       PRES   REMARKS
ROANOKE RAPIDS   N/A    N/A N/A N/A MISG        N/A
RALEIGH        CLOUDY    61  50  67 S9        29.74F
ELIZABETH CITY CLOUDY    62  53  72 S13       29.77F
AHOSKIE*       CLOUDY    61  51  70 S9        29.75F
EDENTON*       CLOUDY    63  53  69 S15       29.79F
CURRITUCK*     CLOUDY    62  51  66 S8        29.77F
KILL DEVIL HLS CLOUDY    60  54  79 SW7       29.79F
MANTEO         CLOUDY    59  55  89 SW14      29.81F
CAPE HATTERAS  PTCLDY    66  59  78 SW17      29.83F
TARBORO*       NOT AVBL
GOLDSBORO      CLOUDY    64  56  76 S7        29.77S
WASHINGTON     CLOUDY    63  55  75 S6        29.79F
GREENVILLE     PTCLDY    63  54  72 S10       29.81S
NEW BERN       CLOUDY    63  58  83 S9        29.82S
WILMINGTON     CLOUDY    66  56  70 SW8       29.83R
$$

VAZ048-190100-
ELSEWHERE

CITY           SKY/WX    TMP DP  RH WIND       PRES   REMARKS
HARRISBURG PA  LGT RAIN  44  43  96 S8        29.49F FOG
BALTIMORE      CLOUDY    56  41  57 S7        29.53F
ANNAPOLIS      NOT AVBL
ANDREWS AFB    CLOUDY    57  42  57 S14       29.55F
PHILADELPHIA   CLOUDY    51  43  74 S8        29.58F
HENDERSON NC   CLOUDY    59  47  65 S16       29.70F
GREENSBORO     CLOUDY    61  49  64 S13       29.68F
ROCKY MOUNT    CLOUDY    62  54  74 S8        29.75F
$$

VAZ100-190100-
MARINE

STATION/POSITION TIME  TEMP    WIND        PRES    WAVE   SWELL
                       AIR SEA DIR/SP/G            HT/PER HT/PER
                 (UTC) (F)     (DEG/KT/KT) (MB)    (FT/S) (FT/S)
15NM E FENWICK I 2350   61 59  200/ 25/ 31 1004.5F   8/ 7
THOMAS POINT MD  0000   56 54  170/ 21/ 23   N/A
CAPE HENRY BUOY  2330      59                N/A     4/ 5
CAPE CHARLES BUO 2351      57                N/A     4/ 5
64NM E OF VA BCH 2350   64 62  210/ 19/ 23 1008.6F   5/ 5   2/11
44100 DUCK FRF   2345      62                N/A     3/ 4
44056 DUCK FRF   0000      60                N/A     2/11
DIAMOND SHLS NC  0000   71 68  190/ 25/ 31 1010.6
CAPE LOOKOUT NC  0000   68     190/ 15/ 17 1010.3F
$$




USA.gov is the U.S. government's official web portal to all federal, state and local government web resources and services.